Previsão horária em Alleroy

Hoje, 15 Junho, Terça-feira

Tempo Temperatura Precipitação Vento Pressão Humidade
00:00 +19°C° 0 mm 2 m/s 727 mmHg 81%
01:00 +20°C° 0 mm 1 m/s 727 mmHg 81%
02:00 +20°C° 0 mm 1 m/s 726 mmHg 81%
03:00 +19°C° 0 mm 1 m/s 726 mmHg 81%
04:00 +20°C° 0 mm 1 m/s 726 mmHg 78%
05:00 +21°C° 0 mm 1 m/s 726 mmHg 75%
06:00 +22°C° 0 mm 1 m/s 726 mmHg 72%
07:00 +23°C° 0 mm 1 m/s 726 mmHg 68%
08:00 +25°C° 0 mm 1 m/s 726 mmHg 63%
09:00 +26°C° 0 mm 1 m/s 726 mmHg 59%
10:00 +27°C° 0 mm 2 m/s 726 mmHg 56%
11:00 +28°C° 0 mm 2 m/s 726 mmHg 54%
12:00 +29°C° 0 mm 2 m/s 726 mmHg 51%
13:00 +30°C° 0.1 mm 3 m/s 726 mmHg 50%
14:00 +30°C° 0.1 mm 3 m/s 726 mmHg 49%
15:00 +30°C° 0.1 mm 3 m/s 726 mmHg 48%
16:00 +29°C° 0 mm 3 m/s 727 mmHg 53%
17:00 +28°C° 0 mm 3 m/s 727 mmHg 58%
18:00 +27°C° 0 mm 3 m/s 727 mmHg 62%
19:00 +25°C° 0 mm 2 m/s 727 mmHg 68%
20:00 +24°C° 0 mm 2 m/s 727 mmHg 74%
21:00 +21°C° 0 mm 2 m/s 728 mmHg 80%
22:00 +21°C° 0 mm 2 m/s 728 mmHg 80%
23:00 +21°C° 0 mm 1 m/s 728 mmHg 81%

Amanhã, 16 Junho, Quarta-feira

Tempo Temperatura Precipitação Vento Pressão Humidade
00:00 +21°C° 0 mm 1 m/s 727 mmHg 81%
01:00 +21°C° 0 mm 1 m/s 727 mmHg 81%
02:00 +20°C° 0 mm 1 m/s 728 mmHg 81%
03:00 +20°C° 0 mm 1 m/s 728 mmHg 81%
04:00 +21°C° 0 mm 1 m/s 728 mmHg 79%
05:00 +22°C° 0 mm 1 m/s 728 mmHg 76%
06:00 +23°C° 0 mm 1 m/s 728 mmHg 74%
07:00 +25°C° 0 mm 2 m/s 728 mmHg 67%
08:00 +26°C° 0 mm 2 m/s 728 mmHg 61%
09:00 +28°C° 0 mm 3 m/s 728 mmHg 55%
10:00 +29°C° 0 mm 4 m/s 727 mmHg 51%
11:00 +32°C° 0 mm 5 m/s 727 mmHg 48%
12:00 +33°C° 0 mm 6 m/s 727 mmHg 44%
13:00 +33°C° 0 mm 6 m/s 726 mmHg 43%
14:00 +33°C° 0 mm 6 m/s 726 mmHg 42%
15:00 +33°C° 0 mm 6 m/s 725 mmHg 41%
16:00 +32°C° 0 mm 6 m/s 725 mmHg 46%
17:00 +29°C° 0 mm 5 m/s 725 mmHg 51%
18:00 +28°C° 0 mm 5 m/s 725 mmHg 56%
19:00 +26°C° 0 mm 4 m/s 725 mmHg 61%
20:00 +24°C° 0 mm 3 m/s 725 mmHg 67%
21:00 +23°C° 0 mm 2 m/s 725 mmHg 72%
22:00 +21°C° 0 mm 2 m/s 725 mmHg 74%
23:00 +22°C° 0 mm 1 m/s 724 mmHg 76%

Depois de amanhã, 17 Junho, Quinta-feira

Tempo Temperatura Precipitação Vento Pressão Humidade
00:00 +21°C° 0 mm 1 m/s 724 mmHg 78%
01:00 +21°C° 0 mm 1 m/s 724 mmHg 78%
02:00 +21°C° 0 mm 1 m/s 724 mmHg 78%
03:00 +21°C° 0 mm 1 m/s 724 mmHg 79%
04:00 +21°C° 0 mm 1 m/s 724 mmHg 76%
05:00 +22°C° 0 mm 1 m/s 724 mmHg 73%
06:00 +23°C° 0 mm 1 m/s 724 mmHg 70%
07:00 +25°C° 0 mm 2 m/s 724 mmHg 64%
08:00 +27°C° 0 mm 3 m/s 725 mmHg 58%
09:00 +29°C° 0 mm 4 m/s 725 mmHg 52%
10:00 +29°C° 0 mm 5 m/s 726 mmHg 51%
11:00 +30°C° 0 mm 7 m/s 726 mmHg 50%
12:00 +32°C° 0 mm 8 m/s 727 mmHg 50%
13:00 +31°C° 0 mm 8 m/s 727 mmHg 51%
14:00 +30°C° 0 mm 7 m/s 728 mmHg 52%
15:00 +30°C° 0 mm 7 m/s 728 mmHg 52%
16:00 +29°C° 0 mm 7 m/s 728 mmHg 55%
17:00 +29°C° 0 mm 7 m/s 729 mmHg 57%
18:00 +28°C° 0 mm 6 m/s 729 mmHg 60%
19:00 +27°C° 0 mm 6 m/s 729 mmHg 63%
20:00 +26°C° 0 mm 6 m/s 730 mmHg 67%
21:00 +23°C° 0 mm 6 m/s 730 mmHg 70%
22:00 +23°C° 0 mm 6 m/s 730 mmHg 71%
23:00 +23°C° 0 mm 6 m/s 730 mmHg 72%

18 Junho, Sexta-feira

Tempo Temperatura Precipitação Vento Pressão Humidade
00:00 +22°C° 0 mm 6 m/s 730 mmHg 73%
01:00 +22°C° 0 mm 6 m/s 730 mmHg 75%
02:00 +22°C° 0 mm 6 m/s 731 mmHg 76%
03:00 +21°C° 0 mm 6 m/s 731 mmHg 78%
04:00 +22°C° 0 mm 6 m/s 731 mmHg 76%
05:00 +22°C° 0 mm 6 m/s 731 mmHg 75%
06:00 +23°C° 0 mm 6 m/s 732 mmHg 73%
07:00 +24°C° 0 mm 6 m/s 732 mmHg 69%
08:00 +26°C° 0 mm 7 m/s 732 mmHg 66%
09:00 +27°C° 0 mm 7 m/s 732 mmHg 62%
10:00 +27°C° 0.1 mm 6 m/s 732 mmHg 62%
11:00 +27°C° 0.1 mm 6 m/s 733 mmHg 62%
12:00 +27°C° 0.1 mm 5 m/s 733 mmHg 62%
13:00 +27°C° 0.3 mm 5 m/s 733 mmHg 63%
14:00 +27°C° 0.3 mm 4 m/s 733 mmHg 63%
15:00 +27°C° 0.3 mm 4 m/s 733 mmHg 64%
16:00 +27°C° 0.4 mm 3 m/s 733 mmHg 68%
17:00 +26°C° 0.4 mm 2 m/s 733 mmHg 71%
18:00 +25°C° 0.4 mm 1 m/s 733 mmHg 75%
19:00 +24°C° 0 mm 1 m/s 733 mmHg 77%
20:00 +24°C° 0 mm 1 m/s 734 mmHg 78%
21:00 +23°C° 0 mm 1 m/s 734 mmHg 80%
22:00 +22°C° 0 mm 1 m/s 734 mmHg 81%
23:00 +21°C° 0 mm 1 m/s 734 mmHg 82%

19 Junho, Sábado

Tempo Temperatura Precipitação Vento Pressão Humidade
00:00 +21°C° 0 mm 1 m/s 734 mmHg 84%
01:00 +19°C° 0 mm 2 m/s 734 mmHg 83%
02:00 +19°C° 0 mm 2 m/s 734 mmHg 83%
03:00 +19°C° 0 mm 2 m/s 734 mmHg 83%
04:00 +19°C° 0 mm 2 m/s 734 mmHg 79%
05:00 +20°C° 0 mm 2 m/s 734 mmHg 75%
06:00 +21°C° 0 mm 2 m/s 734 mmHg 72%
07:00 +24°C° 0 mm 3 m/s 734 mmHg 61%
08:00 +26°C° 0 mm 4 m/s 734 mmHg 51%
09:00 +28°C° 0 mm 6 m/s 734 mmHg 40%
10:00 +29°C° 0 mm 6 m/s 734 mmHg 38%
11:00 +30°C° 0 mm 7 m/s 734 mmHg 35%
12:00 +32°C° 0 mm 8 m/s 734 mmHg 33%
13:00 +31°C° 0 mm 8 m/s 734 mmHg 33%
14:00 +31°C° 0 mm 8 m/s 734 mmHg 34%
15:00 +29°C° 0 mm 8 m/s 734 mmHg 34%
16:00 +28°C° 0 mm 7 m/s 734 mmHg 40%
17:00 +27°C° 0 mm 6 m/s 734 mmHg 45%
18:00 +24°C° 0 mm 6 m/s 734 mmHg 50%
19:00 +23°C° 0 mm 5 m/s 734 mmHg 57%
20:00 +21°C° 0 mm 4 m/s 734 mmHg 64%
21:00 +19°C° 0 mm 4 m/s 734 mmHg 71%
22:00 +18°C° 0 mm 3 m/s 733 mmHg 75%
23:00 +18°C° 0 mm 2 m/s 733 mmHg 78%

20 Junho, Domingo

Tempo Temperatura Precipitação Vento Pressão Humidade
00:00 +18°C° 0 mm 1 m/s 733 mmHg 82%
01:00 +18°C° 0 mm 1 m/s 733 mmHg 83%
02:00 +18°C° 0 mm 1 m/s 732 mmHg 84%
03:00 +16°C° 0 mm 1 m/s 732 mmHg 85%
04:00 +19°C° 0 mm 1 m/s 732 mmHg 81%
05:00 +20°C° 0 mm 1 m/s 732 mmHg 77%
06:00 +21°C° 0 mm 1 m/s 732 mmHg 72%
07:00 +23°C° 0 mm 1 m/s 732 mmHg 63%
08:00 +25°C° 0 mm 2 m/s 732 mmHg 54%
09:00 +28°C° 0 mm 2 m/s 731 mmHg 45%
10:00 +30°C° 0 mm 3 m/s 731 mmHg 41%
11:00 +32°C° 0 mm 4 m/s 731 mmHg 37%
12:00 +34°C° 0 mm 5 m/s 730 mmHg 34%
13:00 +34°C° 0 mm 5 m/s 730 mmHg 35%
14:00 +34°C° 0 mm 6 m/s 730 mmHg 35%
15:00 +34°C° 0 mm 6 m/s 729 mmHg 36%
16:00 +33°C° 0 mm 6 m/s 729 mmHg 41%
17:00 +30°C° 0 mm 6 m/s 729 mmHg 47%
18:00 +29°C° 0 mm 6 m/s 729 mmHg 52%
19:00 +27°C° 0 mm 5 m/s 730 mmHg 56%
20:00 +26°C° 0 mm 4 m/s 730 mmHg 59%
21:00 +24°C° 0 mm 3 m/s 730 mmHg 63%
22:00 +22°C° 0 mm 3 m/s 730 mmHg 65%
23:00 +22°C° 0 mm 3 m/s 730 mmHg 68%
Mostrar mais